Weather History for Flag Island, MN

Change the Weather History Date:

Wednesday, February 13, 2013

  Actual Average Record
Temperature  
Mean Temperature 14 °F -  
Max Temperature 28 °F 16 °F 37 °F (2005)
Min Temperature 1 °F 0 °F -20 °F (2000)
Degree Days  
Heating Degree Days 50    
Moisture  
Dew Point 13 °F    
Average Humidity 85    
Maximum Humidity 100    
Minimum Humidity 64    
Precipitation  
Precipitation 0.00 in - - ()
Sea Level Pressure  
Sea Level Pressure 29.62 in    
Wind  
Wind Speed 5 mph (NW)    
Max Wind Speed 13 mph    
Max Gust Speed -    
Visibility 9 miles    
Events Fog , Snow    
Averages and records for this station are not official NWS values.
T = Trace of Precipitation, MM = Missing Value Source: NWS Daily Summary

Daily Weather History Graph

Daily Weather History Graph

Search for Another Location

Airport:

Trip Planner

Search our weather history database for the weather conditions in past years. The results will help you decide how hot, cold, wet, or windy it might be!

Date:

Astronomy

Feb. 13, 2013 Rise Set
Actual Time 7:31 AM CST 5:36 PM CST
Civil Twilight 6:58 AM CST 6:09 PM CST
Nautical Twilight 6:21 AM CST 6:47 PM CST
Astronomical Twilight 5:44 AM CST 7:24 PM CST
Moon 8:36 AM CST (2/13) 10:08 PM CST (2/13)
Length of Visible Light 11h 11m
Length of Day
10h 05m
Waxing Crescent, 14% of the Moon is Illuminated
Feb 13
Waxing Crescent
Feb 17
First Quarter
Feb 25
Full
Mar 4
Last Quarter
Mar 11
New

Hourly Weather History & Observations

Time (CST) Temp. Windchill Dew Point Humidity Pressure Visibility Wind Dir Wind Speed Gust Speed Precip Events Conditions
12:14 AM 21.2 °F - 17.6 °F 86% 29.59 in 10.0 mi Calm Calm - N/A   Scattered Clouds
12:33 AM 21.2 °F - 17.6 °F 86% 29.59 in 10.0 mi Calm Calm - N/A   Clear
12:54 AM 21.2 °F 16.4 °F 17.6 °F 86% 29.59 in 10.0 mi West 3.5 mph - N/A   Clear
1:13 AM 19.4 °F - 17.6 °F 93% 29.60 in 10.0 mi Calm Calm - N/A   Clear
1:34 AM 21.2 °F 10.1 °F 19.4 °F 93% 29.60 in 10.0 mi WNW 10.4 mph - N/A   Clear
1:53 AM 21.2 °F 10.1 °F 19.4 °F 93% 29.60 in 10.0 mi West 10.4 mph - N/A   Clear
2:14 AM 21.2 °F 9.5 °F 17.6 °F 86% 29.60 in 10.0 mi WNW 11.5 mph - N/A   Clear
2:33 AM 19.4 °F 7.2 °F 17.6 °F 93% 29.60 in 10.0 mi WNW 11.5 mph - N/A   Clear
2:53 AM 21.2 °F 10.1 °F 17.6 °F 86% 29.60 in 10.0 mi WNW 10.4 mph - N/A   Clear
3:14 AM 21.2 °F 10.9 °F 17.6 °F 86% 29.60 in 10.0 mi WNW 9.2 mph - N/A   Clear
3:33 AM 19.4 °F 8.6 °F 17.6 °F 93% 29.60 in 10.0 mi WNW 9.2 mph - N/A   Clear
3:54 AM 17.6 °F 10.7 °F 15.8 °F 93% 29.60 in 10.0 mi NW 4.6 mph - N/A   Clear
4:13 AM 17.6 °F 8.2 °F 17.6 °F 100% 29.60 in 10.0 mi WNW 6.9 mph - N/A   Clear
4:33 AM 19.4 °F 10.4 °F 17.6 °F 93% 29.60 in 10.0 mi WNW 6.9 mph - N/A   Clear
4:54 AM 15.8 °F 10.2 °F 14.0 °F 93% 29.60 in 7.0 mi North 3.5 mph - N/A   Clear
5:13 AM 17.6 °F 12.3 °F 15.8 °F 93% 29.60 in 4.0 mi NNW 3.5 mph - N/A   Clear
5:33 AM 17.6 °F - 15.8 °F 93% 29.60 in 1.0 mi Calm Calm - N/A   Mist
5:54 AM 14.0 °F - 12.2 °F 93% 29.60 in 0.2 mi Calm Calm - N/A Fog Light Freezing Fog
6:13 AM 3.2 °F -6.2 °F -0.4 °F 85% 29.60 in 0.5 mi South 4.6 mph - N/A Fog Light Freezing Fog
6:33 AM 3.2 °F -4.2 °F -0.4 °F 85% 29.59 in 0.2 mi South 3.5 mph - N/A Fog Light Freezing Fog
6:54 AM 1.4 °F -6.2 °F -2.2 °F 85% 29.59 in 0.2 mi SSE 3.5 mph - N/A Fog Light Freezing Fog
7:13 AM 1.4 °F - -2.2 °F 85% 29.59 in - Calm Calm - N/A   Overcast
7:33 AM 1.4 °F -6.2 °F -2.2 °F 85% 29.60 in - SSE 3.5 mph - N/A   Overcast
7:53 AM 1.4 °F -6.2 °F -2.2 °F 85% 29.60 in - SSE 3.5 mph - N/A   Overcast
8:13 AM 1.4 °F - -2.2 °F 85% 29.60 in - Calm Calm - N/A   Overcast
8:34 AM 3.2 °F - -0.4 °F 85% 29.60 in - Calm Calm - N/A   Unknown
8:54 AM 3.2 °F - 1.4 °F 92% 29.60 in - Calm Calm - N/A   Unknown
9:14 AM - - - N/A% 29.60 in - Calm Calm - N/A   Unknown
9:33 AM 8.6 °F - 6.8 °F 92% 29.60 in - Calm Calm - N/A   Overcast
9:53 AM 10.4 °F - 6.8 °F 85% 29.59 in - Calm Calm - N/A   Overcast
10:14 AM 10.4 °F 4.0 °F 6.8 °F 85% 29.60 in - SSE 3.5 mph - N/A   Overcast
10:33 AM 10.4 °F - 8.6 °F 92% 29.61 in - Calm Calm - N/A   Overcast
11:13 AM 12.2 °F - 10.4 °F 92% 29.62 in - Calm Calm - N/A   Unknown
11:33 AM 15.8 °F 8.6 °F 12.2 °F 86% 29.61 in - South 4.6 mph - N/A   Overcast
11:54 AM 15.8 °F 7.2 °F 12.2 °F 86% 29.61 in 10.0 mi South 5.8 mph - N/A   Overcast
12:13 PM 15.8 °F 7.2 °F 12.2 °F 86% 29.61 in 10.0 mi SSE 5.8 mph - N/A Snow Light Snow
12:54 PM 17.6 °F 10.7 °F 15.8 °F 93% 29.60 in 7.0 mi SSE 4.6 mph - N/A Snow Light Snow
1:14 PM 17.6 °F 10.7 °F 15.8 °F 93% 29.58 in 7.0 mi SE 4.6 mph - N/A Snow Light Snow
1:33 PM 19.4 °F 14.3 °F 17.6 °F 93% 29.59 in 10.0 mi South 3.5 mph - N/A   Mostly Cloudy
1:54 PM 19.4 °F 14.3 °F 17.6 °F 93% 29.59 in 10.0 mi South 3.5 mph - N/A   Mostly Cloudy
2:14 PM 19.4 °F 14.3 °F 17.6 °F 93% 29.59 in 10.0 mi SSE 3.5 mph - N/A   Overcast
2:33 PM 19.4 °F 11.5 °F 17.6 °F 93% 29.58 in 10.0 mi SSE 5.8 mph - N/A   Mostly Cloudy
2:54 PM 19.4 °F 12.8 °F 19.4 °F 100% 29.59 in 10.0 mi SSE 4.6 mph - N/A   Scattered Clouds
3:14 PM 21.2 °F 14.9 °F 19.4 °F 93% 29.59 in 10.0 mi SSE 4.6 mph - N/A   Mostly Cloudy
3:33 PM 21.2 °F 14.9 °F 19.4 °F 93% 29.60 in 10.0 mi SE 4.6 mph - N/A   Overcast
3:53 PM 21.2 °F 14.9 °F 19.4 °F 93% 29.60 in 10.0 mi SSE 4.6 mph - N/A   Overcast
4:14 PM 21.2 °F 14.9 °F 21.2 °F 100% 29.60 in 10.0 mi SSE 4.6 mph - N/A   Overcast
4:33 PM 21.2 °F 14.9 °F 19.4 °F 93% 29.60 in 10.0 mi SSE 4.6 mph - N/A   Overcast
4:53 PM 21.2 °F - 21.2 °F 100% 29.61 in 10.0 mi Calm Calm - N/A   Overcast
5:14 PM 26.6 °F 20.0 °F 21.2 °F 80% 29.61 in 10.0 mi NW 5.8 mph - N/A   Overcast
5:33 PM 28.4 °F 19.1 °F 19.4 °F 69% 29.62 in 10.0 mi NNW 10.4 mph - N/A   Overcast
5:53 PM 28.4 °F 20.4 °F 17.6 °F 64% 29.62 in 10.0 mi NNW 8.1 mph - N/A   Mostly Cloudy
6:14 PM 28.4 °F 20.4 °F 17.6 °F 64% 29.63 in 10.0 mi NNW 8.1 mph - N/A   Clear
6:33 PM 23.0 °F 13.1 °F 15.8 °F 74% 29.64 in 10.0 mi NNW 9.2 mph - N/A   Clear
6:53 PM 23.0 °F 12.4 °F 14.0 °F 68% 29.64 in 10.0 mi NNW 10.4 mph - N/A   Clear
7:14 PM 23.0 °F 12.4 °F 15.8 °F 74% 29.65 in 10.0 mi NNW 10.4 mph - N/A   Clear
7:33 PM 21.2 °F 8.9 °F 14.0 °F 74% 29.66 in 10.0 mi NNW 12.7 mph - N/A   Clear
7:53 PM 21.2 °F 8.9 °F 12.2 °F 68% 29.66 in 10.0 mi NNW 12.7 mph - N/A   Clear
8:14 PM 19.4 °F 7.2 °F 12.2 °F 74% 29.67 in 10.0 mi NNW 11.5 mph - N/A   Clear
8:33 PM 19.4 °F 7.2 °F 12.2 °F 74% 29.67 in 10.0 mi NNW 11.5 mph - N/A   Clear
8:53 PM 19.4 °F 7.2 °F 12.2 °F 74% 29.68 in 10.0 mi NNW 11.5 mph - N/A   Clear
9:14 PM 19.4 °F 7.9 °F 12.2 °F 74% 29.68 in 10.0 mi NNW 10.4 mph - N/A   Clear
9:33 PM 19.4 °F 7.9 °F 12.2 °F 74% 29.69 in 10.0 mi North 10.4 mph - N/A   Clear
9:53 PM 19.4 °F 7.2 °F 12.2 °F 74% 29.70 in 10.0 mi North 11.5 mph - N/A   Clear
10:14 PM 17.6 °F 5.0 °F 10.4 °F 73% 29.71 in 10.0 mi North 11.5 mph - N/A   Clear
10:33 PM 15.8 °F 3.4 °F 8.6 °F 73% 29.71 in 10.0 mi North 10.4 mph - N/A   Clear
10:53 PM 15.8 °F 3.4 °F 8.6 °F 73% 29.72 in 10.0 mi North 10.4 mph - N/A   Clear
11:14 PM 15.8 °F 5.1 °F 8.6 °F 73% 29.73 in 10.0 mi North 8.1 mph - N/A   Clear
11:33 PM 14.0 °F 2.0 °F 6.8 °F 73% 29.74 in 10.0 mi North 9.2 mph - N/A   Clear
11:53 PM 12.2 °F -0.2 °F 6.8 °F 79% 29.75 in 10.0 mi North 9.2 mph - N/A   Clear